Time,TemperatureF,DewpointF,PressureIn,WindDirection,WindDirectionDegrees,WindSpeedMPH,WindSpeedGustMPH,Humidity,HourlyPrecipIn,Conditions,Clouds,dailyrainin,SoftwareType,DateUTC
2013-06-17 00:00:00,70.4,66.3,30.02,ESE,120,0.0,2.0,87,0.00,,,0.00,VWS V14.01,2013-06-17 05:00:00,
2013-06-17 00:01:00,70.4,66.3,30.01,ESE,120,0.0,0.0,87,0.00,,,0.00,VWS V14.01,2013-06-17 05:01:00,
2013-06-17 00:06:00,70.3,66.2,30.01,ESE,120,0.0,0.0,87,0.00,,,0.00,VWS V14.01,2013-06-17 05:06:00,
2013-06-17 00:11:00,70.2,66.2,30.01,SW,214,0.0,0.0,87,0.00,,,0.00,VWS V14.01,2013-06-17 05:11:00,
2013-06-17 00:16:00,70.1,66.4,30.00,SW,214,0.0,0.0,88,0.00,,,0.00,VWS V14.01,2013-06-17 05:16:00,
2013-06-17 00:21:00,70.1,66.4,30.00,SSE,162,0.0,1.0,88,0.00,,,0.00,VWS V14.01,2013-06-17 05:21:00,
2013-06-17 00:26:00,70.0,66.3,30.00,SSE,162,0.0,1.0,88,0.00,,,0.00,VWS V14.01,2013-06-17 05:26:00,
2013-06-17 00:31:00,69.8,66.1,30.00,SSE,162,0.0,1.0,88,0.00,,,0.00,VWS V14.01,2013-06-17 05:31:00,
2013-06-17 00:36:00,69.6,66.2,30.00,SSE,162,0.0,1.0,89,0.00,,,0.00,VWS V14.01,2013-06-17 05:36:00,
2013-06-17 00:41:00,69.5,66.1,30.01,SSE,162,0.0,1.0,89,0.00,,,0.00,VWS V14.01,2013-06-17 05:41:00,
2013-06-17 00:46:00,69.2,66.2,30.01,SSE,162,0.0,1.0,90,0.00,,,0.00,VWS V14.01,2013-06-17 05:46:00,
2013-06-17 00:51:00,69.0,65.9,30.01,SSE,160,0.0,1.0,90,0.00,,,0.00,VWS V14.01,2013-06-17 05:51:00,
2013-06-17 00:56:00,68.9,66.2,30.01,SSE,160,0.0,1.0,91,0.00,,,0.00,VWS V14.01,2013-06-17 05:56:00,
2013-06-17 01:00:00,70.4,66.3,30.02,ESE,120,0.0,2.0,87,0.00,,,0.00,VWS V15.00,2013-06-17 06:00:00,
2013-06-17 01:01:00,68.9,66.2,30.01,SE,143,0.0,1.0,91,0.00,,,0.00,VWS V14.01,2013-06-17 06:01:00,
2013-06-17 01:06:00,68.7,66.0,30.01,SE,143,0.0,1.0,91,0.00,,,0.00,VWS V14.01,2013-06-17 06:06:00,
2013-06-17 01:11:00,68.6,66.2,30.00,SE,143,0.0,1.0,92,0.00,,,0.00,VWS V14.01,2013-06-17 06:11:00,
2013-06-17 01:16:00,68.6,66.2,30.00,SE,143,0.0,1.0,92,0.00,,,0.00,VWS V14.01,2013-06-17 06:16:00,
2013-06-17 01:21:00,68.7,66.3,30.00,SE,142,0.0,1.0,92,0.00,,,0.00,VWS V14.01,2013-06-17 06:21:00,
2013-06-17 01:26:00,68.6,66.2,30.00,SE,143,0.0,1.0,92,0.00,,,0.00,VWS V14.01,2013-06-17 06:26:00,
2013-06-17 01:31:00,68.5,66.1,30.00,SE,143,0.0,1.0,92,0.00,,,0.00,VWS V14.01,2013-06-17 06:31:00,
2013-06-17 01:36:00,68.5,66.1,30.00,SSE,152,1.5,1.5,92,0.00,,,0.00,VWS V14.01,2013-06-17 06:36:00,
2013-06-17 01:41:00,68.8,66.4,29.99,SE,134,1.5,3.0,92,0.00,,,0.00,VWS V14.01,2013-06-17 06:41:00,
2013-06-17 01:46:00,69.0,66.3,29.99,SE,145,0.0,3.0,91,0.00,,,0.00,VWS V14.01,2013-06-17 06:46:00,
2013-06-17 01:51:00,69.1,66.4,29.98,SE,145,0.0,3.0,91,0.00,,,0.00,VWS V14.01,2013-06-17 06:51:00,
2013-06-17 01:56:00,69.0,66.6,29.98,SSE,149,0.0,3.0,92,0.00,,,0.00,VWS V14.01,2013-06-17 06:56:00,
2013-06-17 02:00:00,69.0,66.6,29.98,South,177,0.0,3.0,92,0.00,,,0.00,VWS V14.01,2013-06-17 07:00:00,
2013-06-17 02:01:00,69.0,66.6,29.98,South,177,0.0,0.0,92,0.00,,,0.00,VWS V14.01,2013-06-17 07:01:00,
2013-06-17 02:06:00,68.9,66.5,29.98,SSE,154,3.0,3.0,92,0.00,,,0.00,VWS V14.01,2013-06-17 07:06:00,
2013-06-17 02:11:00,68.9,66.5,29.98,SSW,195,1.5,2.0,92,0.00,,,0.00,VWS V14.01,2013-06-17 07:11:00,
2013-06-17 02:16:00,69.0,66.6,29.98,SE,145,0.0,2.0,92,0.00,,,0.00,VWS V14.01,2013-06-17 07:16:00,
2013-06-17 02:21:00,68.8,66.4,29.98,ESE,108,0.0,2.0,92,0.00,,,0.00,VWS V14.01,2013-06-17 07:21:00,
2013-06-17 02:26:00,68.6,66.5,29.99,East,97,0.0,2.0,93,0.00,,,0.00,VWS V14.01,2013-06-17 07:26:00,
2013-06-17 02:31:00,68.6,66.5,29.98,ENE,77,1.5,2.0,93,0.00,,,0.00,VWS V14.01,2013-06-17 07:31:00,
2013-06-17 02:36:00,68.5,66.4,29.98,ENE,77,1.5,2.0,93,0.00,,,0.00,VWS V14.01,2013-06-17 07:36:00,
2013-06-17 02:41:00,68.5,66.7,29.98,East,85,3.0,3.0,94,0.00,,,0.00,VWS V14.01,2013-06-17 07:41:00,
2013-06-17 02:46:00,68.4,66.6,29.98,East,79,0.0,2.0,94,0.00,,,0.00,VWS V14.01,2013-06-17 07:46:00,
2013-06-17 02:51:00,68.6,66.8,29.98,NNE,30,0.0,4.0,94,0.00,,,0.00,VWS V14.01,2013-06-17 07:51:00,
2013-06-17 02:56:00,68.6,66.8,29.98,ENE,68,1.5,4.0,94,0.00,,,0.00,VWS V14.01,2013-06-17 07:56:00,
2013-06-17 03:00:00,69.0,66.6,29.98,South,177,0.0,3.0,92,0.00,,,0.00,VWS V15.00,2013-06-17 08:00:00,
2013-06-17 03:01:00,68.5,66.7,29.98,East,82,0.0,4.0,94,0.00,,,0.00,VWS V14.01,2013-06-17 08:01:00,
2013-06-17 03:06:00,68.5,66.7,29.99,East,94,0.0,4.0,94,0.00,,,0.00,VWS V14.01,2013-06-17 08:06:00,
2013-06-17 03:11:00,68.5,66.7,29.99,East,94,0.0,4.0,94,0.00,,,0.00,VWS V14.01,2013-06-17 08:11:00,
2013-06-17 03:16:00,68.6,66.8,30.01,ENE,73,1.5,4.0,94,0.00,,,0.00,VWS V14.01,2013-06-17 08:16:00,
2013-06-17 03:21:00,68.7,66.9,30.01,NE,55,4.5,6.0,94,0.00,,,0.00,VWS V14.01,2013-06-17 08:21:00,
2013-06-17 03:26:00,68.8,67.0,30.01,ESE,108,1.5,6.0,94,0.00,,,0.00,VWS V14.01,2013-06-17 08:26:00,
2013-06-17 03:31:00,68.8,67.0,30.01,NNE,32,1.5,6.0,94,0.00,,,0.00,VWS V14.01,2013-06-17 08:31:00,
2013-06-17 03:36:00,68.8,67.0,30.01,NNE,26,0.0,6.0,94,0.00,,,0.00,VWS V14.01,2013-06-17 08:36:00,
2013-06-17 03:41:00,68.8,67.0,30.01,North,9,0.0,6.0,94,0.00,,,0.00,VWS V14.01,2013-06-17 08:41:00,
2013-06-17 03:46:00,68.8,67.0,30.00,NE,39,3.0,6.0,94,0.00,,,0.00,VWS V14.01,2013-06-17 08:46:00,
2013-06-17 03:51:00,68.8,66.7,30.00,East,85,1.5,6.0,93,0.00,,,0.00,VWS V14.01,2013-06-17 08:51:00,
2013-06-17 03:56:00,68.8,66.7,29.99,NE,45,0.0,6.0,93,0.00,,,0.00,VWS V14.01,2013-06-17 08:56:00,
2013-06-17 04:00:00,68.9,66.8,29.98,ENE,64,3.0,7.0,93,0.00,,,0.00,VWS V14.01,2013-06-17 09:00:00,
2013-06-17 04:01:00,68.9,66.8,29.98,ENE,65,0.0,2.0,93,0.00,,,0.00,VWS V14.01,2013-06-17 09:01:00,
2013-06-17 04:06:00,69.0,66.9,29.98,ENE,60,1.5,4.0,93,0.00,,,0.00,VWS V14.01,2013-06-17 09:06:00,
2013-06-17 04:11:00,69.1,67.0,29.97,East,89,1.5,5.0,93,0.00,,,0.00,VWS V14.01,2013-06-17 09:11:00,
2013-06-17 04:16:00,69.1,67.0,29.97,ENE,65,4.5,5.0,93,0.00,,,0.00,VWS V14.01,2013-06-17 09:16:00,
2013-06-17 04:21:00,69.2,67.1,29.97,ENE,77,4.5,5.0,93,0.00,,,0.00,VWS V14.01,2013-06-17 09:21:00,
2013-06-17 04:26:00,69.3,66.9,29.97,ENE,65,3.0,5.0,92,0.00,,,0.00,VWS V14.01,2013-06-17 09:26:00,
2013-06-17 04:31:00,69.4,67.0,29.96,ENE,72,3.0,5.0,92,0.00,,,0.00,VWS V14.01,2013-06-17 09:31:00,
2013-06-17 04:36:00,69.4,67.0,29.96,East,90,0.0,5.0,92,0.00,,,0.00,VWS V14.01,2013-06-17 09:36:00,
2013-06-17 04:41:00,69.4,67.0,29.96,ENE,71,1.5,5.0,92,0.00,,,0.00,VWS V14.01,2013-06-17 09:41:00,
2013-06-17 04:46:00,69.3,66.9,29.96,ENE,60,3.0,5.0,92,0.00,,,0.00,VWS V14.01,2013-06-17 09:46:00,
2013-06-17 04:51:00,69.3,66.9,29.97,SE,136,0.0,5.0,92,0.00,,,0.00,VWS V14.01,2013-06-17 09:51:00,
2013-06-17 04:56:00,69.3,66.9,29.97,SE,142,0.0,5.0,92,0.00,,,0.00,VWS V14.01,2013-06-17 09:56:00,
2013-06-17 05:00:00,68.9,66.8,29.98,ENE,64,3.0,7.0,93,0.00,,,0.00,VWS V15.00,2013-06-17 10:00:00,
2013-06-17 05:01:00,69.3,66.6,29.97,ENE,68,0.0,5.0,91,0.00,,,0.00,VWS V14.01,2013-06-17 10:01:00,
2013-06-17 05:06:00,69.2,66.5,29.98,East,91,0.0,5.0,91,0.00,,,0.00,VWS V14.01,2013-06-17 10:06:00,
2013-06-17 05:11:00,69.2,66.5,29.98,SSE,166,0.0,5.0,91,0.00,,,0.00,VWS V14.01,2013-06-17 10:11:00,
2013-06-17 05:16:00,69.2,66.5,29.98,South,170,0.0,5.0,91,0.00,,,0.00,VWS V14.01,2013-06-17 10:16:00,
2013-06-17 05:21:00,69.1,66.4,29.99,South,174,1.5,5.0,91,0.00,,,0.00,VWS V14.01,2013-06-17 10:21:00,
2013-06-17 05:26:00,69.1,66.4,29.99,SSE,167,1.5,5.0,91,0.00,,,0.00,VWS V14.01,2013-06-17 10:26:00,
2013-06-17 05:31:00,69.0,66.3,29.98,South,170,0.0,5.0,91,0.00,,,0.00,VWS V14.01,2013-06-17 10:31:00,
2013-06-17 05:36:00,69.0,66.3,29.98,SSE,160,0.0,5.0,91,0.00,,,0.00,VWS V14.01,2013-06-17 10:36:00,
2013-06-17 05:41:00,68.9,66.2,29.98,ESE,102,0.0,5.0,91,0.00,,,0.00,VWS V14.01,2013-06-17 10:41:00,
2013-06-17 05:46:00,68.8,66.1,29.97,East,101,0.0,5.0,91,0.00,,,0.00,VWS V14.01,2013-06-17 10:46:00,
2013-06-17 05:51:00,68.7,66.0,29.97,East,101,0.0,5.0,91,0.00,,,0.00,VWS V14.01,2013-06-17 10:51:00,
2013-06-17 05:56:00,68.7,66.0,29.97,SE,129,1.5,5.0,91,0.00,,,0.00,VWS V14.01,2013-06-17 10:56:00,
2013-06-17 06:00:00,68.7,66.0,29.97,SE,129,0.0,5.0,91,0.00,,,0.00,VWS V14.01,2013-06-17 11:00:00,
2013-06-17 06:01:00,68.7,66.0,29.97,SE,146,0.0,1.0,91,0.00,,,0.00,VWS V14.01,2013-06-17 11:01:00,
2013-06-17 06:06:00,68.8,66.1,29.97,South,184,0.0,1.0,91,0.00,,,0.00,VWS V14.01,2013-06-17 11:06:00,
2013-06-17 06:11:00,68.8,66.1,29.97,SSE,163,0.0,1.0,91,0.00,,,0.00,VWS V14.01,2013-06-17 11:11:00,
2013-06-17 06:16:00,68.7,66.3,29.97,SSE,164,0.0,1.0,92,0.00,,,0.00,VWS V14.01,2013-06-17 11:16:00,
2013-06-17 06:21:00,68.6,66.5,29.97,SSE,164,0.0,1.0,93,0.01,,,0.01,VWS V14.01,2013-06-17 11:21:00,
2013-06-17 06:26:00,68.5,66.4,29.97,SSE,163,0.0,1.0,93,0.02,,,0.02,VWS V14.01,2013-06-17 11:26:00,
2013-06-17 06:31:00,68.3,66.5,29.96,SSE,163,0.0,1.0,94,0.02,,,0.02,VWS V14.01,2013-06-17 11:31:00,
2013-06-17 06:36:00,68.1,66.6,29.96,SSE,164,0.0,1.0,95,0.02,,,0.02,VWS V14.01,2013-06-17 11:36:00,
2013-06-17 06:40:00,68.0,66.8,29.96,WNW,295,0.0,1.0,96,0.02,,,0.02,VWS V14.01,2013-06-17 11:40:00,
2013-06-17 06:45:00,67.8,66.6,29.96,WSW,256,0.0,1.0,96,0.02,,,0.02,VWS V14.01,2013-06-17 11:45:00,
2013-06-17 06:50:00,67.7,66.5,29.96,West,262,0.0,1.0,96,0.03,,,0.03,VWS V14.01,2013-06-17 11:50:00,
2013-06-17 06:55:00,67.7,66.5,29.97,SSW,204,0.0,1.0,96,0.03,,,0.03,VWS V14.01,2013-06-17 11:55:00,
2013-06-17 07:00:00,68.7,66.0,29.97,SE,129,0.0,5.0,91,0.00,,,0.00,VWS V15.00,2013-06-17 12:00:00,
2013-06-17 07:01:00,67.6,66.7,29.97,NNW,330,1.5,1.5,97,0.03,,,0.03,VWS V14.01,2013-06-17 12:01:00,
2013-06-17 07:05:00,67.6,66.7,29.98,WNW,301,0.0,3.0,97,0.03,,,0.03,VWS V14.01,2013-06-17 12:05:00,
2013-06-17 07:10:00,67.6,66.7,29.98,NNE,25,0.0,3.0,97,0.03,,,0.03,VWS V14.01,2013-06-17 12:10:00,
2013-06-17 07:15:00,67.6,66.7,29.98,NNE,25,0.0,3.0,97,0.03,,,0.03,VWS V14.01,2013-06-17 12:15:00,
2013-06-17 07:20:00,67.5,66.6,29.99,NNE,26,0.0,3.0,97,0.03,,,0.03,VWS V14.01,2013-06-17 12:20:00,
2013-06-17 07:25:00,67.5,66.6,29.98,NNE,26,0.0,3.0,97,0.03,,,0.03,VWS V14.01,2013-06-17 12:25:00,
2013-06-17 07:30:00,67.5,66.6,29.98,NNE,26,0.0,3.0,97,0.03,,,0.03,VWS V14.01,2013-06-17 12:30:00,
2013-06-17 07:35:00,67.5,66.6,29.98,SW,218,0.0,3.0,97,0.03,,,0.03,VWS V14.01,2013-06-17 12:35:00,
2013-06-17 07:40:00,67.6,66.7,29.98,SSE,166,0.0,3.0,97,0.04,,,0.04,VWS V14.01,2013-06-17 12:40:00,
2013-06-17 07:45:00,67.6,66.7,29.98,WSW,252,0.0,3.0,97,0.04,,,0.04,VWS V14.01,2013-06-17 12:45:00,
2013-06-17 07:50:00,67.7,66.8,29.98,SSE,155,0.0,3.0,97,0.05,,,0.05,VWS V14.01,2013-06-17 12:50:00,
2013-06-17 07:55:00,67.7,66.8,29.97,SSE,155,0.0,3.0,97,0.05,,,0.05,VWS V14.01,2013-06-17 12:55:00,
2013-06-17 08:00:00,67.7,67.1,29.97,SSE,155,0.0,0.0,98,0.00,,,0.05,VWS V14.01,2013-06-17 13:00:00,
2013-06-17 08:05:00,67.7,67.1,29.96,SSE,155,0.0,0.0,98,0.00,,,0.05,VWS V14.01,2013-06-17 13:05:00,
2013-06-17 08:10:00,67.8,67.2,29.96,SSE,164,0.0,0.0,98,0.01,,,0.06,VWS V14.01,2013-06-17 13:10:00,
2013-06-17 08:15:00,67.7,66.8,29.97,South,176,1.5,3.0,97,0.01,,,0.06,VWS V14.01,2013-06-17 13:15:00,
2013-06-17 08:20:00,67.8,67.2,29.96,SSE,153,0.0,3.0,98,0.01,,,0.06,VWS V14.01,2013-06-17 13:20:00,
2013-06-17 08:25:00,67.8,67.2,29.96,SE,146,0.0,3.0,98,0.01,,,0.06,VWS V14.01,2013-06-17 13:25:00,
2013-06-17 08:30:00,67.8,67.2,29.96,SE,135,0.0,3.0,98,0.01,,,0.06,VWS V14.01,2013-06-17 13:30:00,
2013-06-17 08:35:00,67.9,67.3,29.96,ESE,122,0.0,3.0,98,0.01,,,0.06,VWS V14.01,2013-06-17 13:35:00,
2013-06-17 08:40:00,67.9,67.3,29.96,SSE,168,3.0,3.0,98,0.02,,,0.07,VWS V14.01,2013-06-17 13:40:00,
2013-06-17 08:45:00,67.9,67.3,29.96,SSW,204,0.0,3.0,98,0.02,,,0.07,VWS V14.01,2013-06-17 13:45:00,
2013-06-17 08:50:00,68.0,67.4,29.96,East,91,0.0,3.0,98,0.04,,,0.09,VWS V14.01,2013-06-17 13:50:00,
2013-06-17 08:55:00,68.0,67.4,29.95,SSW,206,0.0,3.0,98,0.05,,,0.10,VWS V14.01,2013-06-17 13:55:00,
2013-06-17 09:00:00,68.0,67.4,29.94,ESE,114,1.5,3.0,98,0.05,,,0.10,VWS V14.01,2013-06-17 14:00:00,
2013-06-17 09:05:00,68.0,67.4,29.94,ESE,121,3.0,4.0,98,0.06,,,0.11,VWS V14.01,2013-06-17 14:05:00,
2013-06-17 09:10:00,68.0,67.4,29.94,SSE,150,3.0,4.0,98,0.06,,,0.11,VWS V14.01,2013-06-17 14:10:00,
2013-06-17 09:15:00,68.0,67.4,29.94,ESE,110,1.5,5.0,98,0.07,,,0.12,VWS V14.01,2013-06-17 14:15:00,
2013-06-17 09:20:00,68.1,67.2,29.92,SE,142,0.0,7.0,97,0.07,,,0.12,VWS V14.01,2013-06-17 14:20:00,
2013-06-17 09:25:00,68.1,67.5,29.93,SSE,159,0.0,7.0,98,0.07,,,0.12,VWS V14.01,2013-06-17 14:25:00,
2013-06-17 09:30:00,68.3,67.4,29.92,SSE,163,1.5,7.0,97,0.07,,,0.12,VWS V14.01,2013-06-17 14:30:00,
2013-06-17 09:35:00,68.4,67.5,29.93,ESE,112,6.0,7.0,97,0.07,,,0.12,VWS V14.01,2013-06-17 14:35:00,
2013-06-17 09:40:00,68.6,67.4,29.92,ESE,104,3.0,9.0,96,0.07,,,0.12,VWS V14.01,2013-06-17 14:40:00,
2013-06-17 09:45:00,68.8,67.6,29.93,South,182,4.5,9.0,96,0.07,,,0.12,VWS V14.01,2013-06-17 14:45:00,
2013-06-17 09:50:00,68.9,67.7,29.93,South,170,3.0,9.0,96,0.07,,,0.12,VWS V14.01,2013-06-17 14:50:00,
2013-06-17 09:55:00,69.1,67.9,29.93,SE,134,4.5,9.0,96,0.07,,,0.12,VWS V14.01,2013-06-17 14:55:00,
2013-06-17 10:00:00,69.1,67.9,29.93,SW,219,3.0,3.0,96,0.00,,,0.12,VWS V14.01,2013-06-17 15:00:00,
2013-06-17 10:05:00,69.2,68.0,29.93,SE,136,3.0,4.0,96,0.00,,,0.12,VWS V14.01,2013-06-17 15:05:00,
2013-06-17 10:10:00,69.2,67.7,29.93,South,190,1.5,8.0,95,0.00,,,0.12,VWS V14.01,2013-06-17 15:10:00,
2013-06-17 10:15:00,69.2,67.7,29.93,SSE,148,1.5,8.0,95,0.00,,,0.12,VWS V14.01,2013-06-17 15:15:00,
2013-06-17 10:20:00,69.3,67.8,29.93,ESE,105,3.0,8.0,95,0.00,,,0.12,VWS V14.01,2013-06-17 15:20:00,
2013-06-17 10:25:00,69.3,67.8,29.94,NE,44,1.5,8.0,95,0.00,,,0.12,VWS V14.01,2013-06-17 15:25:00,
2013-06-17 10:30:00,69.3,67.8,29.95,NNE,27,0.0,8.0,95,0.00,,,0.12,VWS V14.01,2013-06-17 15:30:00,
2013-06-17 10:35:00,69.2,68.0,29.95,NE,39,4.5,8.0,96,0.00,,,0.12,VWS V14.01,2013-06-17 15:35:00,
2013-06-17 10:40:00,69.2,68.0,29.95,ENE,71,1.5,8.0,96,0.00,,,0.12,VWS V14.01,2013-06-17 15:40:00,
2013-06-17 10:45:00,69.0,67.8,29.95,East,80,3.0,8.0,96,0.00,,,0.12,VWS V14.01,2013-06-17 15:45:00,
2013-06-17 10:50:00,69.1,67.6,29.95,South,169,0.0,8.0,95,0.00,,,0.12,VWS V14.01,2013-06-17 15:50:00,
2013-06-17 10:55:00,69.3,67.8,29.95,ENE,75,1.5,8.0,95,0.00,,,0.12,VWS V14.01,2013-06-17 15:55:00,
2013-06-17 11:00:00,69.5,68.3,29.97,NW,305,0.0,8.0,96,0.00,,,0.12,VWS V14.01,2013-06-17 16:00:00,
2013-06-17 11:05:00,69.7,68.5,29.98,NW,316,3.0,8.0,96,0.00,,,0.12,VWS V14.01,2013-06-17 16:05:00,
2013-06-17 11:10:00,69.8,68.6,29.99,NE,40,3.0,8.0,96,0.00,,,0.12,VWS V14.01,2013-06-17 16:10:00,
2013-06-17 11:15:00,70.0,68.8,29.99,ENE,60,3.0,8.0,96,0.00,,,0.12,VWS V14.01,2013-06-17 16:15:00,
2013-06-17 11:20:00,70.4,69.2,29.99,NW,309,0.0,8.0,96,0.00,,,0.12,VWS V14.01,2013-06-17 16:20:00,
2013-06-17 11:25:00,70.9,69.1,30.00,NNW,327,3.0,8.0,94,0.00,,,0.12,VWS V14.01,2013-06-17 16:25:00,
2013-06-17 11:30:00,71.3,69.5,29.99,NNE,25,3.0,8.0,94,0.00,,,0.12,VWS V14.01,2013-06-17 16:30:00,
2013-06-17 11:35:00,71.6,69.5,29.99,NNE,25,4.5,8.0,93,0.00,,,0.12,VWS V14.01,2013-06-17 16:35:00,
2013-06-17 11:40:00,72.0,69.6,30.00,NE,35,3.0,8.0,92,0.00,,,0.12,VWS V14.01,2013-06-17 16:40:00,
2013-06-17 11:45:00,72.1,69.3,30.00,NE,44,4.5,8.0,91,0.00,,,0.12,VWS V14.01,2013-06-17 16:45:00,
2013-06-17 11:50:00,72.3,69.5,29.99,North,354,3.0,8.0,91,0.00,,,0.12,VWS V14.01,2013-06-17 16:50:00,
2013-06-17 11:55:00,72.4,69.0,29.99,East,86,1.5,8.0,89,0.00,,,0.12,VWS V14.01,2013-06-17 16:55:00,
2013-06-17 12:00:00,72.7,69.6,29.99,ENE,60,3.0,3.0,90,0.00,,,0.12,VWS V14.01,2013-06-17 17:00:00,
2013-06-17 12:05:00,73.1,69.7,29.99,East,87,1.5,6.0,89,0.00,,,0.12,VWS V14.01,2013-06-17 17:05:00,
2013-06-17 12:10:00,73.8,70.0,29.99,NNE,20,3.0,6.0,88,0.00,,,0.12,VWS V14.01,2013-06-17 17:10:00,
2013-06-17 12:15:00,73.9,69.8,29.99,ENE,58,3.0,8.0,87,0.00,,,0.12,VWS V14.01,2013-06-17 17:15:00,
2013-06-17 12:20:00,74.0,69.9,29.99,ENE,69,3.0,9.0,87,0.00,,,0.12,VWS V14.01,2013-06-17 17:20:00,
2013-06-17 12:25:00,74.5,69.7,29.99,NNW,335,3.0,9.0,85,0.00,,,0.12,VWS V14.01,2013-06-17 17:25:00,
2013-06-17 12:30:00,74.7,69.9,29.99,SSW,201,1.5,9.0,85,0.00,,,0.12,VWS V14.01,2013-06-17 17:30:00,
2013-06-17 12:35:00,75.1,69.9,29.99,NNE,26,1.5,9.0,84,0.00,,,0.12,VWS V14.01,2013-06-17 17:35:00,
2013-06-17 12:40:00,75.1,69.6,29.98,SE,135,1.5,9.0,83,0.00,,,0.12,VWS V14.01,2013-06-17 17:40:00,
2013-06-17 12:45:00,75.0,69.5,29.98,ENE,61,0.0,9.0,83,0.00,,,0.12,VWS V14.01,2013-06-17 17:45:00,
2013-06-17 12:50:00,74.7,69.6,29.98,ENE,77,1.5,9.0,84,0.00,,,0.12,VWS V14.01,2013-06-17 17:50:00,
2013-06-17 12:55:00,74.4,68.9,29.98,ENE,70,1.5,9.0,83,0.00,,,0.12,VWS V14.01,2013-06-17 17:55:00,
2013-06-17 13:00:00,74.1,69.0,29.98,SSE,158,1.5,9.0,84,0.00,,,0.12,VWS V14.01,2013-06-17 18:00:00,
2013-06-17 13:05:00,73.9,68.8,29.98,SSE,159,1.5,9.0,84,0.00,,,0.12,VWS V14.01,2013-06-17 18:05:00,
2013-06-17 13:10:00,73.8,69.3,29.97,SSE,165,3.0,9.0,86,0.00,,,0.12,VWS V14.01,2013-06-17 18:10:00,
2013-06-17 13:15:00,74.4,70.3,29.97,South,170,0.0,9.0,87,0.00,,,0.12,VWS V14.01,2013-06-17 18:15:00,
2013-06-17 13:20:00,75.7,70.9,29.97,South,176,3.0,9.0,85,0.00,,,0.12,VWS V14.01,2013-06-17 18:20:00,
2013-06-17 13:25:00,77.0,70.4,29.97,SSE,153,3.0,9.0,80,0.00,,,0.12,VWS V14.01,2013-06-17 18:25:00,
2013-06-17 13:30:00,77.1,70.1,29.97,East,84,1.5,9.0,79,0.00,,,0.12,VWS V14.01,2013-06-17 18:30:00,
2013-06-17 13:35:00,76.8,70.2,29.97,East,101,0.0,9.0,80,0.00,,,0.12,VWS V14.01,2013-06-17 18:35:00,
2013-06-17 13:40:00,76.6,70.7,29.96,SSE,149,0.0,9.0,82,0.00,,,0.12,VWS V14.01,2013-06-17 18:40:00,
2013-06-17 13:45:00,76.4,70.1,29.97,North,355,1.5,9.0,81,0.00,,,0.12,VWS V14.01,2013-06-17 18:45:00,
2013-06-17 13:50:00,75.9,69.7,29.96,SE,141,0.0,9.0,81,0.00,,,0.12,VWS V14.01,2013-06-17 18:50:00,
2013-06-17 13:55:00,75.9,70.0,29.96,ENE,75,0.0,9.0,82,0.00,,,0.12,VWS V14.01,2013-06-17 18:55:00,
2013-06-17 14:00:00,75.9,70.4,29.95,NW,309,0.0,0.0,83,0.00,,,0.12,VWS V14.01,2013-06-17 19:00:00,
2013-06-17 14:05:00,75.7,69.8,29.95,NW,326,4.5,4.5,82,0.00,,,0.12,VWS V14.01,2013-06-17 19:05:00,
2013-06-17 14:10:00,75.9,70.7,29.95,NNW,347,3.0,4.0,84,0.00,,,0.12,VWS V14.01,2013-06-17 19:10:00,
2013-06-17 14:15:00,75.5,70.3,29.95,WNW,295,3.0,4.0,84,0.00,,,0.12,VWS V14.01,2013-06-17 19:15:00,
2013-06-17 14:20:00,75.3,70.5,29.95,North,355,0.0,4.0,85,0.00,,,0.12,VWS V14.01,2013-06-17 19:20:00,
2013-06-17 14:25:00,75.1,69.6,29.95,NNW,327,4.5,5.0,83,0.00,,,0.12,VWS V14.01,2013-06-17 19:25:00,
2013-06-17 14:30:00,74.8,70.0,29.95,ENE,60,1.5,7.0,85,0.00,,,0.12,VWS V14.01,2013-06-17 19:30:00,
2013-06-17 14:35:00,74.2,69.8,29.95,North,354,4.5,7.0,86,0.00,,,0.12,VWS V14.01,2013-06-17 19:35:00,
2013-06-17 14:40:00,73.2,69.4,29.95,NNW,335,4.5,8.0,88,0.00,,,0.12,VWS V14.01,2013-06-17 19:40:00,
2013-06-17 14:45:00,72.6,69.8,29.95,NE,44,0.0,8.0,91,0.00,,,0.12,VWS V14.01,2013-06-17 19:45:00,
2013-06-17 14:50:00,72.3,69.8,29.95,NW,313,0.0,8.0,92,0.01,,,0.13,VWS V14.01,2013-06-17 19:50:00,
2013-06-17 14:55:00,71.8,69.0,29.95,NNE,22,1.5,8.0,91,0.01,,,0.13,VWS V14.01,2013-06-17 19:55:00,
2013-06-17 15:00:00,71.4,69.3,29.95,NNW,345,1.5,8.0,93,0.01,,,0.13,VWS V14.01,2013-06-17 20:00:00,
2013-06-17 15:05:00,71.5,69.7,29.95,NNE,13,0.0,8.0,94,0.01,,,0.13,VWS V14.01,2013-06-17 20:05:00,
2013-06-17 15:10:00,71.4,69.3,29.95,NNW,330,0.0,8.0,93,0.01,,,0.13,VWS V14.01,2013-06-17 20:10:00,
2013-06-17 15:15:00,71.2,69.4,29.95,NW,320,3.0,8.0,94,0.01,,,0.13,VWS V14.01,2013-06-17 20:15:00,
2013-06-17 15:20:00,71.1,69.0,29.95,NNE,13,1.5,8.0,93,0.01,,,0.13,VWS V14.01,2013-06-17 20:20:00,
2013-06-17 15:25:00,71.0,69.2,29.95,NNE,28,0.0,8.0,94,0.01,,,0.13,VWS V14.01,2013-06-17 20:25:00,
2013-06-17 15:30:00,71.1,69.6,29.95,NNE,27,0.0,8.0,95,0.02,,,0.14,VWS V14.01,2013-06-17 20:30:00,
2013-06-17 15:35:00,71.1,69.6,29.95,WNW,293,4.5,8.0,95,0.02,,,0.14,VWS V14.01,2013-06-17 20:35:00,
2013-06-17 15:40:00,71.0,69.2,29.95,WNW,302,4.5,8.0,94,0.02,,,0.14,VWS V14.01,2013-06-17 20:40:00,
2013-06-17 15:45:00,70.9,69.4,29.95,NW,325,3.0,8.0,95,0.02,,,0.14,VWS V14.01,2013-06-17 20:45:00,
2013-06-17 15:50:00,70.9,69.4,29.95,North,350,0.0,8.0,95,0.02,,,0.14,VWS V14.01,2013-06-17 20:50:00,
2013-06-17 15:55:00,71.0,69.2,29.95,North,3,1.5,8.0,94,0.02,,,0.14,VWS V14.01,2013-06-17 20:55:00,
2013-06-17 16:00:00,71.1,69.3,29.95,NNE,28,1.5,2.0,94,0.00,,,0.14,VWS V14.01,2013-06-17 21:00:00,
2013-06-17 16:05:00,71.1,69.3,29.95,NE,46,6.0,6.0,94,0.00,,,0.14,VWS V14.01,2013-06-17 21:05:00,
2013-06-17 16:10:00,71.0,68.9,29.95,NNW,343,3.0,5.0,93,0.00,,,0.14,VWS V14.01,2013-06-17 21:10:00,
2013-06-17 16:15:00,71.0,69.2,29.95,NNE,23,1.5,5.0,94,0.00,,,0.14,VWS V14.01,2013-06-17 21:15:00,
2013-06-17 16:20:00,71.1,69.3,29.95,NNE,27,1.5,5.0,94,0.00,,,0.14,VWS V14.01,2013-06-17 21:20:00,
2013-06-17 16:25:00,71.2,69.4,29.95,NE,35,1.5,5.0,94,0.00,,,0.14,VWS V14.01,2013-06-17 21:25:00,
2013-06-17 16:30:00,71.4,69.6,29.95,North,4,1.5,5.0,94,0.00,,,0.14,VWS V14.01,2013-06-17 21:30:00,
2013-06-17 16:35:00,72.0,69.9,29.95,WNW,295,1.5,5.0,93,0.00,,,0.14,VWS V14.01,2013-06-17 21:35:00,
2013-06-17 16:40:00,72.2,69.8,29.95,North,352,1.5,5.0,92,0.00,,,0.14,VWS V14.01,2013-06-17 21:40:00,
2013-06-17 16:45:00,72.0,69.2,29.95,NE,37,7.5,7.5,91,0.00,,,0.14,VWS V14.01,2013-06-17 21:45:00,
2013-06-17 16:50:00,71.7,69.3,29.95,NNE,31,1.5,5.0,92,0.00,,,0.14,VWS V14.01,2013-06-17 21:50:00,
2013-06-17 16:55:00,71.4,69.0,29.95,NE,53,4.5,7.0,92,0.00,,,0.14,VWS V14.01,2013-06-17 21:55:00,
2013-06-17 17:00:00,71.2,69.1,29.95,NNW,340,3.0,7.0,93,0.00,,,0.14,VWS V14.01,2013-06-17 22:00:00,
2013-06-17 17:05:00,71.1,69.0,29.95,NNE,26,6.0,7.0,93,0.00,,,0.14,VWS V14.01,2013-06-17 22:05:00,
2013-06-17 17:10:00,71.0,68.9,29.95,NNE,25,0.0,7.0,93,0.00,,,0.14,VWS V14.01,2013-06-17 22:10:00,
2013-06-17 17:15:00,71.0,68.9,29.95,NNE,13,3.0,7.0,93,0.00,,,0.14,VWS V14.01,2013-06-17 22:15:00,
2013-06-17 17:20:00,71.1,69.0,29.95,North,349,1.5,7.0,93,0.00,,,0.14,VWS V14.01,2013-06-17 22:20:00,
2013-06-17 17:25:00,71.2,68.8,29.95,North,5,3.0,7.0,92,0.00,,,0.14,VWS V14.01,2013-06-17 22:25:00,
2013-06-17 17:30:00,71.2,68.8,29.95,NW,325,3.0,7.0,92,0.00,,,0.14,VWS V14.01,2013-06-17 22:30:00,
2013-06-17 17:35:00,71.2,68.8,29.95,NNE,15,1.5,7.0,92,0.00,,,0.14,VWS V14.01,2013-06-17 22:35:00,
2013-06-17 17:40:00,71.2,68.8,29.95,North,354,3.0,7.0,92,0.00,,,0.14,VWS V14.01,2013-06-17 22:40:00,
2013-06-17 17:45:00,71.2,68.4,29.95,NE,56,4.5,7.0,91,0.00,,,0.14,VWS V14.01,2013-06-17 22:45:00,
2013-06-17 17:50:00,71.2,68.4,29.95,North,6,1.5,7.0,91,0.00,,,0.14,VWS V14.01,2013-06-17 22:50:00,
2013-06-17 17:55:00,71.3,68.5,29.95,NNE,26,3.0,7.0,91,0.00,,,0.14,VWS V14.01,2013-06-17 22:55:00,
2013-06-17 18:00:00,71.4,68.6,29.95,NNE,18,1.5,3.0,91,0.00,,,0.14,VWS V14.01,2013-06-17 23:00:00,
2013-06-17 18:05:00,71.4,68.6,29.95,North,8,4.5,5.0,91,0.00,,,0.14,VWS V14.01,2013-06-17 23:05:00,
2013-06-17 18:10:00,71.2,68.8,29.95,NNE,18,3.0,5.0,92,0.00,,,0.14,VWS V14.01,2013-06-17 23:10:00,
2013-06-17 18:15:00,71.0,68.6,29.95,North,5,3.0,8.0,92,0.00,,,0.14,VWS V14.01,2013-06-17 23:15:00,
2013-06-17 18:20:00,70.7,68.6,29.95,NE,35,6.0,8.0,93,0.00,,,0.14,VWS V14.01,2013-06-17 23:20:00,
2013-06-17 18:25:00,70.6,68.5,29.95,NNE,18,1.5,8.0,93,0.00,,,0.14,VWS V14.01,2013-06-17 23:25:00,
2013-06-17 18:30:00,70.5,68.7,29.95,North,357,3.0,8.0,94,0.00,,,0.14,VWS V14.01,2013-06-17 23:30:00,
2013-06-17 18:35:00,70.5,68.7,29.95,NNW,339,1.5,8.0,94,0.00,,,0.14,VWS V14.01,2013-06-17 23:35:00,
2013-06-17 18:40:00,70.5,68.7,29.96,NNE,27,4.5,8.0,94,0.00,,,0.14,VWS V14.01,2013-06-17 23:40:00,
2013-06-17 18:45:00,70.5,68.7,29.96,NNE,16,1.5,8.0,94,0.00,,,0.14,VWS V14.01,2013-06-17 23:45:00,
2013-06-17 18:50:00,70.6,68.8,29.96,NNE,23,3.0,8.0,94,0.00,,,0.14,VWS V14.01,2013-06-17 23:50:00,
2013-06-17 18:55:00,70.7,68.9,29.96,NE,38,0.0,8.0,94,0.00,,,0.14,VWS V14.01,2013-06-17 23:55:00,
2013-06-17 19:00:00,70.7,68.9,29.96,NNE,27,3.0,8.0,94,0.00,,,0.14,VWS V14.01,2013-06-18 00:00:00,
2013-06-17 19:05:00,70.8,69.0,29.96,North,1,3.0,8.0,94,0.00,,,0.14,VWS V14.01,2013-06-18 00:05:00,
2013-06-17 19:10:00,70.7,68.9,29.96,North,355,1.5,8.0,94,0.00,,,0.14,VWS V14.01,2013-06-18 00:10:00,
2013-06-17 19:15:00,70.5,68.7,29.96,North,350,3.0,8.0,94,0.01,,,0.15,VWS V14.01,2013-06-18 00:15:00,
2013-06-17 19:20:00,70.4,68.9,29.96,North,6,4.5,8.0,95,0.01,,,0.15,VWS V14.01,2013-06-18 00:20:00,
2013-06-17 19:25:00,70.5,69.0,29.96,North,353,3.0,8.0,95,0.01,,,0.15,VWS V14.01,2013-06-18 00:25:00,
2013-06-17 19:30:00,70.6,68.8,29.96,NNE,27,7.5,8.0,94,0.01,,,0.15,VWS V14.01,2013-06-18 00:30:00,
2013-06-17 19:35:00,70.6,68.5,29.96,North,358,6.0,8.0,93,0.01,,,0.15,VWS V14.01,2013-06-18 00:35:00,
2013-06-17 19:40:00,70.6,68.2,29.96,NNE,29,9.0,9.0,92,0.01,,,0.15,VWS V14.01,2013-06-18 00:40:00,
2013-06-17 19:45:00,70.6,68.2,29.96,NNW,347,4.5,8.0,92,0.01,,,0.15,VWS V14.01,2013-06-18 00:45:00,
2013-06-17 19:50:00,70.5,67.8,29.96,NNE,26,6.0,8.0,91,0.01,,,0.15,VWS V14.01,2013-06-18 00:50:00,
2013-06-17 19:55:00,70.3,67.6,29.96,NNW,337,4.5,8.0,91,0.01,,,0.15,VWS V14.01,2013-06-18 00:55:00,
2013-06-17 20:00:00,70.3,67.6,29.96,NNE,16,9.0,9.0,91,0.00,,,0.15,VWS V14.01,2013-06-18 01:00:00,
2013-06-17 20:05:00,70.3,67.9,29.96,NW,307,1.5,7.0,92,0.00,,,0.15,VWS V14.01,2013-06-18 01:05:00,
2013-06-17 20:10:00,70.2,67.8,29.97,NE,34,6.0,7.0,92,0.00,,,0.15,VWS V14.01,2013-06-18 01:10:00,
2013-06-17 20:15:00,70.2,67.4,29.96,NNE,33,9.0,9.0,91,0.00,,,0.15,VWS V14.01,2013-06-18 01:15:00,
2013-06-17 20:20:00,70.1,67.4,29.96,North,4,1.5,8.0,91,0.00,,,0.15,VWS V14.01,2013-06-18 01:20:00,
2013-06-17 20:25:00,69.9,67.2,29.97,ENE,70,3.0,8.0,91,0.00,,,0.15,VWS V14.01,2013-06-18 01:25:00,
2013-06-17 20:30:00,69.8,67.1,29.96,NE,35,1.5,8.0,91,0.00,,,0.15,VWS V14.01,2013-06-18 01:30:00,
2013-06-17 20:35:00,69.7,67.0,29.96,ENE,59,4.5,8.0,91,0.00,,,0.15,VWS V14.01,2013-06-18 01:35:00,
2013-06-17 20:40:00,69.6,66.9,29.96,East,80,4.5,8.0,91,0.00,,,0.15,VWS V14.01,2013-06-18 01:40:00,
2013-06-17 20:45:00,69.5,66.8,29.96,NE,35,4.5,8.0,91,0.00,,,0.15,VWS V14.01,2013-06-18 01:45:00,
2013-06-17 20:50:00,69.4,67.0,29.96,NE,53,0.0,8.0,92,0.00,,,0.15,VWS V14.01,2013-06-18 01:50:00,
2013-06-17 20:55:00,69.3,66.9,29.97,NE,34,1.5,8.0,92,0.00,,,0.15,VWS V14.01,2013-06-18 01:55:00,
2013-06-17 21:00:00,69.2,67.1,29.97,ENE,68,3.0,8.0,93,0.00,,,0.15,VWS V14.01,2013-06-18 02:00:00,
2013-06-17 21:05:00,69.2,67.1,29.97,NNE,13,3.0,8.0,93,0.00,,,0.15,VWS V14.01,2013-06-18 02:05:00,
2013-06-17 21:10:00,69.2,67.1,29.97,NE,53,1.5,8.0,93,0.00,,,0.15,VWS V14.01,2013-06-18 02:10:00,
2013-06-17 21:15:00,69.2,67.4,29.98,NNE,21,3.0,8.0,94,0.00,,,0.15,VWS V14.01,2013-06-18 02:15:00,
2013-06-17 21:20:00,69.2,67.1,29.98,ENE,68,1.5,8.0,93,0.00,,,0.15,VWS V14.01,2013-06-18 02:20:00,
2013-06-17 21:25:00,69.2,67.1,29.98,NE,50,1.5,8.0,93,0.00,,,0.15,VWS V14.01,2013-06-18 02:25:00,
2013-06-17 21:30:00,69.2,67.1,29.98,NE,55,0.0,8.0,93,0.00,,,0.15,VWS V14.01,2013-06-18 02:30:00,
2013-06-17 21:35:00,69.1,67.0,29.97,NNW,344,3.0,8.0,93,0.00,,,0.15,VWS V14.01,2013-06-18 02:35:00,
2013-06-17 21:40:00,69.1,67.0,29.98,NNE,22,3.0,8.0,93,0.00,,,0.15,VWS V14.01,2013-06-18 02:40:00,
2013-06-17 21:45:00,69.2,67.1,29.98,NNE,23,1.5,8.0,93,0.00,,,0.15,VWS V14.01,2013-06-18 02:45:00,
2013-06-17 21:50:00,69.2,67.1,29.98,NNE,25,1.5,8.0,93,0.00,,,0.15,VWS V14.01,2013-06-18 02:50:00,
2013-06-17 21:55:00,69.1,67.0,29.99,North,5,1.5,8.0,93,0.00,,,0.15,VWS V14.01,2013-06-18 02:55:00,
2013-06-17 22:00:00,69.1,67.3,29.99,NNE,20,1.5,2.0,94,0.00,,,0.15,VWS V14.01,2013-06-18 03:00:00,
2013-06-17 22:05:00,69.1,67.3,30.00,NE,50,3.0,3.0,94,0.00,,,0.15,VWS V14.01,2013-06-18 03:05:00,
2013-06-17 22:10:00,69.1,67.3,29.99,NE,48,0.0,2.0,94,0.00,,,0.15,VWS V14.01,2013-06-18 03:10:00,
2013-06-17 22:15:00,69.0,67.2,29.99,NE,34,1.5,2.0,94,0.00,,,0.15,VWS V14.01,2013-06-18 03:15:00,
2013-06-17 22:20:00,69.1,67.3,29.99,NE,37,1.5,2.0,94,0.00,,,0.15,VWS V14.01,2013-06-18 03:20:00,
2013-06-17 22:25:00,69.0,67.2,29.99,NE,34,1.5,2.0,94,0.00,,,0.15,VWS V14.01,2013-06-18 03:25:00,
2013-06-17 22:30:00,69.0,67.2,29.99,NE,34,0.0,2.0,94,0.00,,,0.15,VWS V14.01,2013-06-18 03:30:00,
2013-06-17 22:35:00,68.9,67.1,30.00,NW,321,0.0,2.0,94,0.00,,,0.15,VWS V14.01,2013-06-18 03:35:00,
2013-06-17 22:40:00,68.8,67.0,30.00,NNE,22,0.0,2.0,94,0.00,,,0.15,VWS V14.01,2013-06-18 03:40:00,
2013-06-17 22:45:00,68.7,67.2,30.00,NNE,18,0.0,2.0,95,0.00,,,0.15,VWS V14.01,2013-06-18 03:45:00,
2013-06-17 22:50:00,68.5,67.0,29.99,NNE,18,0.0,2.0,95,0.00,,,0.15,VWS V14.01,2013-06-18 03:50:00,
2013-06-17 22:55:00,68.3,66.8,30.00,NNE,18,0.0,2.0,95,0.00,,,0.15,VWS V14.01,2013-06-18 03:55:00,
2013-06-17 23:00:00,68.1,66.6,29.99,NNE,18,0.0,2.0,95,0.00,,,0.15,VWS V14.01,2013-06-18 04:00:00,
2013-06-17 23:01:00,68.0,66.5,29.99,NNE,18,0.0,2.0,95,0.00,,,0.15,VWS V14.01,2013-06-18 04:01:00,
2013-06-17 23:06:00,67.9,66.7,30.00,NNE,20,0.0,2.0,96,0.00,,,0.15,VWS V14.01,2013-06-18 04:06:00,
2013-06-17 23:11:00,67.7,66.5,30.00,NNE,18,0.0,2.0,96,0.00,,,0.15,VWS V14.01,2013-06-18 04:11:00,
2013-06-17 23:16:00,67.7,66.5,30.00,NNE,16,3.0,3.0,96,0.00,,,0.15,VWS V14.01,2013-06-18 04:16:00,
2013-06-17 23:21:00,67.8,66.6,30.00,NE,34,1.5,4.0,96,0.00,,,0.15,VWS V14.01,2013-06-18 04:21:00,
2013-06-17 23:26:00,68.1,66.6,30.00,NE,55,1.5,4.0,95,0.00,,,0.15,VWS V14.01,2013-06-18 04:26:00,
2013-06-17 23:31:00,68.1,66.6,30.00,ENE,58,0.0,4.0,95,0.00,,,0.15,VWS V14.01,2013-06-18 04:31:00,
2013-06-17 23:36:00,68.1,66.6,30.00,NNE,12,0.0,4.0,95,0.00,,,0.15,VWS V14.01,2013-06-18 04:36:00,
2013-06-17 23:41:00,68.1,66.6,30.00,East,93,0.0,4.0,95,0.00,,,0.15,VWS V14.01,2013-06-18 04:41:00,
2013-06-17 23:46:00,68.0,66.5,30.00,NE,43,0.0,4.0,95,0.00,,,0.15,VWS V14.01,2013-06-18 04:46:00,
2013-06-17 23:51:00,68.0,66.5,30.00,NNE,30,0.0,4.0,95,0.00,,,0.15,VWS V14.01,2013-06-18 04:51:00,
2013-06-17 23:56:00,68.0,66.5,30.01,NNW,337,1.5,4.0,95,0.00,,,0.15,VWS V14.01,2013-06-18 04:56:00,